Location: Chiroubles
(46.1812°N, 4.6660°E)
Time: 06:10:06
(UTC+00:00)

Transit 4A - Pass Details

Date: 09 December 2020
Orbit: 864 x 981 km, 66.8° (Epoch: 16 January)

Event Time Altitude Azimuth Distance (km) Brightness Sun altitude
Rises 05:49:44 0° 220° (SW) 3,634 10.8 -13.6°
Reaches altitude 10° 05:52:17 10° 223° (SW) 2,703 10.1 -13.2°
Maximum altitude 05:58:37 68° 306° (NW) 1,052 8.0 -12.2°
Drops below altitude 10° 06:05:02 10° 30° (NNE) 2,742 10.5 -11.2°
Sets 06:07:38 0° 33° (NNE) 3,690 11.2 -10.7°
